Regional Weather Roundup
Issued by NWS Charleston, WV

Home | Current Version | Previous Version | Text Only | Print | Product List | Glossary On
Versions: 1 2 3 4 5 6 7 8 9 10 11 12 13 14 15 16 17 18 19 20 21 22 23 24 25 26 27 28 29 30 31 32 33 34 35 36 37 38 39 40 41 42 43 44 45 46 47 48 49 50
000
ASUS41 KRLX 200610
RWRRLX
West Virginia Regional Weather Roundup
National Weather Service Charleston WV
200 AM EDT SAT SEP 20 2014

Note: "fair" indicates few or no clouds below 12,000 feet with no
significant weather and/or obstructions to visibility.

WVZ003-200700-
Northern Panhandle of West Virginia

CITY           SKY/WX    TMP DP  RH WIND       PRES   REMARKS
WHEELING       PTCLDY    61  55  81 S9        30.15S
$$

WVZ009-200700-
Northwest West Virginia

CITY           SKY/WX    TMP DP  RH WIND       PRES   REMARKS
PARKERSBURG    CLEAR     63  56  78 S7        30.16S
$$

WVZ006-200700-
Western West Virginia

CITY           SKY/WX    TMP DP  RH WIND       PRES   REMARKS
HUNTINGTON     PTCLDY    64  60  87 SE5       30.11S
$$

WVZ015-200700-
West Central West Virginia

CITY           SKY/WX    TMP DP  RH WIND       PRES   REMARKS
CHARLESTON     CLEAR     65  58  78 S6        30.15R
$$

WVZ031-200700-
North Central West Virginia

CITY           SKY/WX    TMP DP  RH WIND       PRES   REMARKS
CLARKSBURG     CLEAR     57  53  86 CALM      30.18S
MORGANTOWN     CLEAR     62  53  72 CALM      30.19S
$$

WVZ035-042-045-200700-
South Central West Virginia

CITY           SKY/WX    TMP DP  RH WIND       PRES   REMARKS
BECKLEY        PTCLDY    60  55  83 SE13G23   30.24S
BLUEFIELD      CLOUDY    63  54  72 VRB3      30.26F
LEWISBURG      CLOUDY    59  55  85 CALM      30.28S
$$

WVZ047-200700-
Northern Mountains of West Virginia

CITY           SKY/WX    TMP DP  RH WIND       PRES   REMARKS
ELKINS         CLEAR     62  55  77 SE8G17    30.23S
$$

WVZ052-200700-
Eastern Panhandle of West Virginia

CITY           SKY/WX    TMP DP  RH WIND       PRES   REMARKS
MARTINSBURG    CLOUDY    65  58  78 S5        30.27S
PETERSBURG     CLOUDY    62  58  87 E3        30.25S
$$



USA.gov is the U.S. government's official web portal to all federal, state and local government web resources and services.